Owatonna, MN

4:03 PM CDT on April 25, 2018 (GMT -0500)
Owatonna Degner Regional

Weather History for KOWA - February, 2014

Change the Weather History Date:

Saturday, February 15, 2014

  Actual Average Record
Temperature  
Mean Temperature 7 °F -  
Max Temperature 19 °F 27 °F 49 °F (1981)
Min Temperature -5 °F 9 °F -16 °F (2004)
Degree Days  
Heating Degree Days 58    
Moisture  
Dew Point 6 °F    
Average Humidity 80    
Maximum Humidity 86    
Minimum Humidity 67    
Precipitation  
Precipitation 0.02 in - - ()
Sea Level Pressure  
Sea Level Pressure 29.88 in    
Wind  
Wind Speed 8 mph (SSE)    
Max Wind Speed 20 mph    
Max Gust Speed 25 mph    
Visibility 8 miles    
Events Snow    
Averages and records for this station are not official NWS values.
T = Trace of Precipitation, MM = Missing Value Source: NWS Daily Summary

Daily Weather History Graph

Daily Weather History Graph

Search for Another Location

Airport or City:

Astronomy

Feb. 15, 2014 Rise Set
Actual Time 7:12 AM CST 5:42 PM CST
Civil Twilight 6:42 AM CST 6:12 PM CST
Nautical Twilight 6:08 AM CST 6:46 PM CST
Astronomical Twilight 5:35 AM CST 7:19 PM CST
Moon 6:47 PM CST (2/15) 7:08 AM CST (2/15)
Length of Visible Light 11h 29m
Length of Day
10h 30m
Waxing Gibbous, 99% of the Moon is Illuminated
Feb 15
Waxing Gibbous
Feb 22
Last Quarter
Mar 1
New
Mar 8
First Quarter
Mar 16
Full

Hourly Weather History & Observations

Time (CST) Temp. Windchill Dew Point Humidity Pressure Visibility Wind Dir Wind Speed Gust Speed Precip Events Conditions
12:14 AM -5.8 °F - -9.4 °F 84% 30.01 in 7.0 mi Calm Calm - N/A   Clear
12:34 AM -4.0 °F - -9.4 °F 78% 30.01 in 5.0 mi Calm Calm - N/A   Haze
12:54 AM -4.0 °F -12.4 °F -7.6 °F 85% 30.00 in 10.0 mi SW 3.5 mph - N/A   Clear
1:14 AM -2.2 °F -10.4 °F -7.6 °F 78% 30.00 in 10.0 mi SSW 3.5 mph - N/A   Clear
1:34 AM -2.2 °F -10.4 °F -5.8 °F 85% 29.99 in 10.0 mi SSE 3.5 mph - N/A   Clear
1:54 AM -2.2 °F -14.2 °F -7.6 °F 78% 29.98 in 10.0 mi SSE 5.8 mph - N/A   Clear
2:14 AM -2.2 °F -14.2 °F -7.6 °F 78% 29.97 in 10.0 mi SSE 5.8 mph - N/A   Clear
2:34 AM -2.2 °F -14.2 °F -7.6 °F 78% 29.95 in 10.0 mi SSE 5.8 mph - N/A   Clear
2:54 AM -2.2 °F - -7.6 °F 78% 29.96 in 10.0 mi Calm Calm - N/A   Clear
3:14 AM -2.2 °F -12.5 °F -7.6 °F 78% 29.95 in 10.0 mi ESE 4.6 mph - N/A   Clear
3:34 AM -4.0 °F - -9.4 °F 78% 29.95 in 10.0 mi Calm Calm - N/A   Clear
3:54 AM -0.4 °F - -4.0 °F 85% 29.96 in 10.0 mi Calm Calm - N/A   Clear
4:14 AM 1.4 °F -8.3 °F -2.2 °F 85% 29.95 in 10.0 mi SSE 4.6 mph - N/A   Clear
4:34 AM -0.4 °F -12.0 °F -4.0 °F 85% 29.94 in 10.0 mi SSE 5.8 mph - N/A   Clear
4:54 AM 1.4 °F -9.9 °F -2.2 °F 85% 29.94 in 10.0 mi SE 5.8 mph - N/A   Clear
5:14 AM 3.2 °F -10.3 °F -0.4 °F 85% 29.92 in 10.0 mi SE 8.1 mph - N/A   Clear
5:34 AM 3.2 °F -11.3 °F -0.4 °F 85% 29.91 in 10.0 mi SE 9.2 mph - N/A   Clear
5:54 AM 5.0 °F -9.1 °F 1.4 °F 85% 29.90 in 10.0 mi SE 9.2 mph - N/A   Clear
6:14 AM 6.8 °F -8.6 °F 1.4 °F 79% 29.88 in 10.0 mi SE 11.5 mph - N/A   Clear
6:34 AM 6.8 °F -9.3 °F 3.2 °F 85% 29.87 in 10.0 mi SE 12.7 mph - N/A   Clear
6:54 AM 6.8 °F -7.8 °F 1.4 °F 79% 29.87 in 10.0 mi SE 10.4 mph - N/A   Clear
7:14 AM 6.8 °F -10.0 °F 1.4 °F 79% 29.87 in 10.0 mi SE 13.8 mph - N/A   Clear
7:34 AM 6.8 °F -11.8 °F 1.4 °F 79% 29.86 in 10.0 mi SSE 17.3 mph 23.0 mph N/A   Clear
7:54 AM 8.6 °F -9.5 °F 1.4 °F 73% 29.86 in 10.0 mi SSE 17.3 mph - N/A   Clear
8:14 AM 8.6 °F -9.5 °F 1.4 °F 73% 29.87 in 10.0 mi South 17.3 mph - N/A   Clear
8:34 AM 10.4 °F -8.2 °F 1.4 °F 67% 29.87 in 10.0 mi South 19.6 mph - N/A   Clear
8:54 AM 10.4 °F -6.6 °F 1.4 °F 67% 29.87 in 10.0 mi SSE 16.1 mph - N/A   Clear
9:14 AM 10.4 °F -6.6 °F 3.2 °F 73% 29.84 in 10.0 mi SSE 16.1 mph - N/A   Scattered Clouds
9:34 AM 10.4 °F -7.7 °F 3.2 °F 73% 29.83 in 10.0 mi SE 18.4 mph 24.2 mph N/A   Scattered Clouds
9:54 AM 12.2 °F -4.3 °F 3.2 °F 67% 29.83 in 10.0 mi SSE 16.1 mph - N/A   Clear
10:14 AM 12.2 °F -5.3 °F 5.0 °F 73% 29.84 in 10.0 mi SSE 18.4 mph - N/A   Mostly Cloudy
10:34 AM 12.2 °F -3.1 °F 5.0 °F 73% 29.84 in 2.5 mi South 13.8 mph - N/A Snow Light Snow
10:54 AM 12.2 °F -4.3 °F 8.6 °F 85% 29.82 in 0.2 mi SSE 16.1 mph - N/A Snow Heavy Snow
11:14 AM 12.2 °F -4.3 °F 8.6 °F 85% 29.82 in 0.5 mi SSE 16.1 mph - N/A Snow Light Snow
11:34 AM 14.0 °F -2.5 °F 8.6 °F 79% 29.81 in 0.5 mi SSE 17.3 mph - N/A Snow Snow
11:54 AM 14.0 °F -2.0 °F 10.4 °F 86% 29.80 in 0.5 mi SSE 16.1 mph 24.2 mph N/A Snow Light Snow
12:14 PM 14.0 °F -0.8 °F 10.4 °F 86% 29.79 in 0.2 mi SE 13.8 mph 21.9 mph N/A Snow Snow
12:34 PM 14.0 °F -3.0 °F 10.4 °F 86% 29.77 in 0.5 mi SE 18.4 mph - N/A Snow Snow
12:54 PM 15.8 °F 0.3 °F 10.4 °F 79% 29.76 in 0.8 mi SSE 16.1 mph 25.3 mph N/A Snow Light Snow
1:14 PM 15.8 °F -0.2 °F 10.4 °F 79% 29.76 in 1.2 mi SE 17.3 mph - N/A Snow Light Snow
1:34 PM 15.8 °F -0.6 °F 10.4 °F 79% 29.75 in 2.5 mi SSE 18.4 mph 23.0 mph N/A Snow Light Snow
1:54 PM 15.8 °F -1.1 °F 10.4 °F 79% 29.74 in 4.0 mi SSE 19.6 mph - N/A   Haze
2:14 PM 15.8 °F 0.3 °F 10.4 °F 79% 29.74 in 5.0 mi SSE 16.1 mph 23.0 mph N/A   Haze
2:34 PM 15.8 °F -0.2 °F 10.4 °F 79% 29.75 in 2.5 mi SSE 17.3 mph 20.7 mph 0.01 in Snow Light Snow
2:54 PM 15.8 °F 1.4 °F 10.4 °F 79% 29.76 in 1.5 mi SSE 13.8 mph - 0.01 in Snow Light Snow
3:14 PM 15.8 °F 0.9 °F 10.4 °F 79% 29.76 in 3.0 mi SSE 15.0 mph - N/A Snow Light Snow
3:34 PM 15.8 °F 2.1 °F 12.2 °F 86% 29.77 in 7.0 mi SSE 12.7 mph - 0.01 in   Mostly Cloudy
3:54 PM 15.8 °F 3.4 °F 12.2 °F 86% 29.78 in 10.0 mi SSE 10.4 mph - 0.01 in   Mostly Cloudy
4:14 PM 17.6 °F 7.3 °F 12.2 °F 79% 29.78 in 10.0 mi SSE 8.1 mph - N/A   Mostly Cloudy
4:34 PM 17.6 °F 6.4 °F 12.2 °F 79% 29.79 in 7.0 mi SSE 9.2 mph - N/A Snow Light Snow
4:54 PM 17.6 °F 7.3 °F 12.2 °F 79% 29.79 in 10.0 mi SSE 8.1 mph - N/A   Overcast
5:14 PM 17.6 °F 9.3 °F 12.2 °F 79% 29.81 in 10.0 mi South 5.8 mph - N/A   Overcast
5:34 PM 17.6 °F - 12.2 °F 79% 29.81 in 10.0 mi North - - N/A   Overcast
5:54 PM 17.6 °F 10.7 °F 12.2 °F 79% 29.83 in 10.0 mi SSE 4.6 mph - N/A   Overcast
6:14 PM 17.6 °F - 12.2 °F 79% 29.85 in 10.0 mi Calm Calm - N/A   Overcast
6:34 PM 17.6 °F - 12.2 °F 79% 29.87 in 10.0 mi Calm Calm - N/A   Overcast
6:54 PM 17.6 °F - 12.2 °F 79% 29.88 in 10.0 mi Calm Calm - N/A   Overcast
7:14 PM 17.6 °F 12.3 °F 12.2 °F 79% 29.90 in 10.0 mi NW 3.5 mph - N/A   Overcast
7:34 PM 17.6 °F 10.7 °F 12.2 °F 79% 29.91 in 10.0 mi NW 4.6 mph - N/A   Overcast
7:54 PM 17.6 °F 9.3 °F 12.2 °F 79% 29.92 in 10.0 mi NW 5.8 mph - N/A   Overcast
8:14 PM 17.6 °F 8.2 °F 12.2 °F 79% 29.93 in 10.0 mi NW 6.9 mph - N/A   Overcast
8:34 PM 17.6 °F 6.4 °F 12.2 °F 79% 29.94 in 10.0 mi NW 9.2 mph - N/A   Scattered Clouds
8:54 PM 17.6 °F 6.4 °F 12.2 °F 79% 29.95 in 10.0 mi NW 9.2 mph - N/A   Mostly Cloudy
9:14 PM 17.6 °F 5.0 °F 12.2 °F 79% 29.96 in 10.0 mi NW 11.5 mph - N/A   Overcast
9:34 PM 17.6 °F 4.3 °F 14.0 °F 86% 29.96 in 10.0 mi NW 12.7 mph - N/A   Mostly Cloudy
9:54 PM 17.6 °F 5.0 °F 14.0 °F 86% 29.96 in 10.0 mi NW 11.5 mph - N/A   Scattered Clouds
10:14 PM 17.6 °F 5.0 °F 14.0 °F 86% 29.97 in 10.0 mi NW 11.5 mph - N/A   Mostly Cloudy
10:34 PM 17.6 °F 4.3 °F 14.0 °F 86% 29.99 in 10.0 mi WNW 12.7 mph - N/A   Overcast
10:54 PM 17.6 °F 4.3 °F 14.0 °F 86% 30.00 in 10.0 mi WNW 12.7 mph - N/A   Overcast
11:14 PM 17.6 °F 4.3 °F 14.0 °F 86% 30.00 in 10.0 mi NW 12.7 mph - N/A   Overcast
11:34 PM 19.4 °F 6.0 °F 14.0 °F 80% 30.01 in 10.0 mi NW 13.8 mph - N/A   Overcast
11:54 PM 19.4 °F 6.0 °F 12.2 °F 74% 30.00 in 10.0 mi NW 13.8 mph - N/A   Overcast